Wind_Speed
27 28 29 30 30 30 28 26 26 26 27 28 30 32 33 35 37 37 37 37 37 37 37 38 38 39 40 41 41 41 41 42 42 42 43 43 44 44 45 45 46 47 47
28 29 30 30 30 29 27 26 27 28 30 32 33 34 36 38 39 39 38 38 38 38 39 39 40 41 42 43 43 44 45 46 46 46 47 47 47 48 48 49 50 50 51
28 29 29 29 30 29 28 28 29 32 34 36 38 39 41 42 41 40 39 39 39 40 40 41 42 43 44 45 46 48 49 50 51 51 52 53 53 54 54 55 55 56 56
28 29 29 31 31 30 29 30 32 34 37 39 41 43 43 43 41 40 39 39 40 40 41 43 44 46 47 48 50 51 52 54 55 57 58 58 59 60 60 61 61 61 62
28 30 31 32 31 31 31 32 35 37 39 41 43 43 41 40 40 39 39 40 41 43 44 46 48 49 51 52 54 55 57 58 60 61 61 62 63 63 64 64 65 65 66
30 31 32 32 32 32 33 35 37 39 40 42 42 41 39 39 39 40 41 43 44 46 48 50 52 54 56 57 58 60 61 62 63 63 64 64 64 65 65 66 66 67 68
31 32 31 31 31 32 34 37 39 40 41 42 41 40 40 40 41 42 44 46 49 51 54 56 57 59 60 62 63 64 64 65 65 65 65 65 66 66 66 67 68 68 69
32 32 32 32 33 35 37 39 41 42 43 42 40 40 41 42 44 46 48 51 54 57 59 61 62 64 65 65 66 66 66 66 67 67 68 69 70 71 72 72 73 74 74
34 35 35 36 37 39 41 42 43 44 44 43 43 43 44 44 45 46 51 55 58 60 62 64 65 66 67 67 68 68 69 70 72 73 75 76 78 79 80 81 82 83 83
37 38 39 40 41 42 43 45 45 45 45 45 46 47 49 51 53 52 53 57 60 62 64 65 66 66 68 69 71 73 74 77 79 81 83 85 87 88 90 91 92 93 93
40 42 42 43 44 45 46 46 46 46 46 47 49 51 54 57 60 62 61 62 63 64 65 66 66 68 70 72 75 77 80 83 86 88 90 93 95 98 100 101 102 103 104
42 43 44 45 46 46 47 47 46 47 48 50 53 56 59 61 64 67 67 67 66 66 67 68 68 70 73 76 80 83 87 90 94 97 99 102 105 108 110 112 113 114 115
43 44 45 46 46 47 46 46 47 48 51 54 57 61 64 67 69 71 72 72 71 71 72 72 74 77 81 84 88 93 97 101 104 108 111 114 117 119 121 122 123 123 124
44 45 45 46 47 46 47 48 49 51 54 58 61 64 67 71 73 75 76 76 76 75 75 77 80 85 91 95 100 104 108 112 116 120 122 124 126 126 126 125 124 121 119
43 44 45 46 46 46 48 50 52 55 58 61 64 67 70 73 75 76 77 78 80 81 80 82 87 92 99 105 111 116 121 125 126 126 124 121 118 115 112 109 105 102 99
42 43 44 45 46 48 50 53 55 58 61 64 67 70 73 75 75 76 78 81 85 88 89 90 95 101 108 115 121 125 126 124 119 114 108 103 98 94 91 88 86 85 83
42 43 44 45 48 50 53 55 58 60 63 66 70 72 74 75 75 78 81 85 90 96 99 100 105 111 116 119 118 114 109 103 96 90 86 83 80 77 74 72 71 71 71
42 42 44 47 50 53 56 58 60 62 66 69 72 73 74 75 78 81 85 91 96 103 109 113 114 115 112 106 98 90 83 78 74 70 68 66 63 60 58 56 55 55 56
42 44 47 50 53 55 58 59 62 65 69 71 72 73 75 77 81 86 91 97 104 109 114 117 113 105 94 83 75 66 60 57 55 55 53 51 48 46 44 44 43 42 43
43 47 50 53 55 56 58 61 66 69 71 71 72 74 77 81 87 92 98 104 110 112 111 106 97 85 73 62 55 50 45 44 43 45 45 43 42 40 39 37 36 35 35
46 50 52 54 55 58 62 66 69 69 70 71 74 77 81 87 93 99 106 110 110 106 99 89 77 65 54 47 43 40 37 35 36 40 39 38 39 39 38 38 36 35 33
49 51 52 54 58 62 66 68 68 68 70 73 76 81 87 93 99 105 109 107 100 91 82 70 59 50 45 42 38 35 34 33 33 36 35 34 37 37 38 37 37 35 32
50 52 54 58 61 65 66 67 67 69 72 76 81 87 92 98 105 107 104 94 82 72 64 54 47 43 40 37 34 32 30 31 34 36 33 31 34 35 36 36 34 30 26
51 54 57 60 63 64 65 66 68 71 76 81 87 93 97 102 106 102 92 78 65 55 49 45 43 40 37 35 34 32 30 28 31 36 37 34 33 33 33 32 29 23 19
53 56 59 61 62 63 65 67 71 75 81 86 92 97 102 104 100 90 76 62 50 44 42 41 39 37 37 36 35 32 30 29 29 33 36 36 35 32 31 28 22 16 14
54 57 59 60 61 63 66 70 75 80 85 90 95 100 101 96 85 72 59 48 41 39 38 36 35 35 35 35 35 34 34 33 32 31 32 32 32 29 25 23 17 13 12
Wind_Direction
275 281 286 290 295 298 300 299 300 300 299 299 300 301 301 300 299 297 295 292 290 289 288 288 287 288 288 288 287 287 286 285 284 283 282 281 279 278 277 275 274 273 271
275 280 285 290 293 294 294 293 294 297 298 299 299 300 301 301 299 297 295 292 290 288 287 286 285 285 284 284 284 284 283 283 282 281 280 279 277 276 275 274 273 272 272
274 278 284 288 290 290 287 288 292 296 297 297 298 298 298 298 297 295 294 292 291 289 288 287 286 285 284 284 283 283 283 282 281 280 279 277 277 276 275 274 273 272 271
274 278 282 286 287 285 284 286 291 294 295 296 297 297 297 296 295 294 293 291 290 289 288 288 287 287 286 286 285 284 283 283 281 280 279 278 277 276 275 274 273 272 271
273 276 280 284 284 284 284 287 291 293 295 296 297 297 296 295 294 293 292 291 290 289 289 289 289 288 288 287 286 285 284 284 283 282 280 279 278 277 276 275 273 272 271
272 277 281 284 284 284 286 289 292 294 295 296 297 296 295 294 293 292 292 291 291 291 291 291 290 290 289 288 287 287 286 285 284 283 281 280 278 277 275 274 273 272 271
273 279 283 285 284 286 289 291 294 295 295 296 295 294 294 293 293 294 294 295 296 296 295 293 292 291 291 290 289 289 288 286 285 283 281 280 278 277 275 273 272 271 270
275 280 284 285 286 289 292 294 296 296 296 295 293 291 291 294 296 297 298 298 298 298 298 297 295 294 293 292 290 289 287 286 284 283 281 280 279 277 276 275 273 271 270
276 280 283 285 288 292 294 295 295 295 295 294 292 292 292 292 292 294 296 297 297 298 298 297 296 294 293 291 289 288 286 285 284 282 281 280 279 278 277 276 274 273 271
276 280 283 286 290 293 294 294 295 295 295 295 295 296 297 297 296 294 293 294 294 295 295 294 293 292 290 289 288 286 285 284 283 282 281 281 280 279 278 277 276 275 273
277 280 283 287 291 293 295 295 296 296 296 296 296 297 298 298 298 297 296 295 296 297 296 295 293 291 289 288 287 286 285 285 284 283 282 282 281 280 280 279 278 277 275
277 281 284 288 292 294 295 296 297 297 298 298 298 298 298 298 298 298 298 298 297 297 296 295 292 290 289 288 288 287 287 286 285 284 284 283 282 281 281 280 279 278 277
278 282 286 290 292 295 296 297 298 299 299 298 298 299 299 300 301 301 301 300 299 298 297 296 294 293 292 291 290 290 289 288 288 287 286 285 284 283 282 281 280 279 277
280 284 288 291 293 295 297 298 299 299 299 298 299 300 301 302 303 303 303 302 300 299 298 298 297 296 296 295 294 293 292 291 290 289 287 286 285 284 282 281 280 278 277
282 286 289 292 295 296 298 299 299 299 299 299 301 302 303 304 304 304 303 302 302 301 300 300 300 299 299 298 297 295 294 292 291 289 288 286 284 283 281 279 277 275 273
286 289 292 294 296 297 298 298 299 299 300 302 303 304 305 305 305 304 304 304 304 304 304 304 302 301 300 299 298 297 296 294 293 291 289 287 285 282 279 277 274 272 270
288 291 293 295 297 298 299 299 300 302 303 304 305 306 306 306 305 305 305 306 306 306 306 305 304 303 302 301 299 297 296 295 294 293 291 289 287 284 280 277 275 272 270
290 292 295 297 298 299 300 302 303 304 305 306 306 306 306 306 307 307 308 308 308 308 308 307 307 305 304 302 300 299 298 297 296 296 294 293 291 288 284 281 278 275 272
292 295 297 298 300 301 303 304 305 306 306 307 307 307 308 308 309 309 310 310 310 310 310 309 308 307 306 305 303 302 302 301 300 300 299 299 298 296 292 288 283 280 278
295 297 298 300 302 304 305 305 306 307 307 308 308 309 310 310 311 311 312 312 312 312 311 310 310 310 310 308 308 307 306 305 304 301 303 305 305 303 300 295 291 287 284
297 299 301 303 304 305 306 307 307 308 308 309 310 311 312 312 313 314 314 315 314 313 311 311 312 313 314 314 314 314 313 312 309 307 310 310 308 306 303 300 297 293 289
299 301 303 304 305 306 307 307 308 309 310 311 311 312 313 314 314 316 317 316 315 313 313 314 316 317 318 318 320 320 319 319 315 313 316 314 309 307 304 301 297 295 292
301 303 304 305 306 307 307 308 309 311 312 312 313 313 314 315 316 317 317 316 314 313 314 316 319 320 321 322 324 326 326 325 322 321 324 323 316 312 308 304 301 298 292
302 304 305 306 306 307 308 310 311 312 312 313 314 315 316 317 318 317 316 316 315 314 316 318 320 322 324 326 328 330 331 332 330 326 328 329 325 322 315 312 308 300 291
303 304 305 306 307 308 310 311 312 313 314 315 316 317 318 318 318 317 317 317 316 316 317 319 321 324 326 328 329 331 332 336 339 333 331 332 330 329 323 321 318 307 294
304 305 306 307 308 310 311 311 312 314 316 317 318 318 319 319 318 317 318 318 317 317 319 320 320 323 325 326 328 330 333 338 343 341 337 336 335 337 336 334 335 325 310
Height
5798 5797 5796 5795 5794 5792 5790 5788 5787 5785 5783 5782 5780 5778 5776 5773 5772 5769 5767 5765 5762 5761 5759 5757 5756 5754 5753 5751 5750 5749 5749 5748 5747 5747 5746 5745 5745 5745 5745 5745 5745 5745 5746
5792 5792 5791 5790 5788 5787 5785 5783 5781 5779 5777 5775 5773 5771 5769 5766 5764 5761 5759 5757 5754 5752 5751 5749 5748 5746 5744 5743 5741 5740 5738 5737 5736 5735 5735 5734 5733 5733 5733 5733 5733 5734 5734
5786 5786 5785 5784 5783 5781 5780 5778 5776 5774 5771 5768 5766 5763 5761 5758 5755 5753 5750 5748 5746 5744 5742 5740 5738 5736 5734 5733 5731 5729 5727 5726 5724 5723 5722 5721 5720 5720 5719 5719 5719 5720 5720
5781 5780 5779 5778 5777 5775 5774 5772 5770 5768 5765 5761 5758 5755 5752 5749 5746 5744 5742 5739 5737 5735 5732 5730 5728 5725 5723 5721 5719 5716 5714 5712 5710 5709 5707 5706 5705 5704 5703 5703 5703 5703 5704
5775 5774 5773 5772 5770 5769 5768 5766 5763 5761 5757 5754 5750 5747 5743 5740 5737 5735 5733 5730 5727 5725 5722 5719 5716 5713 5710 5707 5705 5702 5699 5697 5694 5692 5690 5688 5687 5686 5685 5684 5684 5684 5685
5769 5768 5766 5765 5763 5762 5760 5758 5756 5753 5750 5746 5742 5738 5735 5732 5729 5726 5724 5720 5717 5714 5710 5707 5703 5699 5696 5692 5689 5686 5683 5680 5677 5674 5672 5670 5668 5667 5666 5665 5664 5664 5664
5762 5761 5760 5758 5756 5754 5752 5750 5747 5744 5741 5738 5734 5730 5726 5723 5720 5717 5713 5709 5705 5700 5696 5692 5688 5684 5680 5676 5672 5668 5664 5661 5658 5655 5652 5650 5648 5646 5645 5644 5643 5643 5643
5755 5754 5753 5751 5749 5747 5744 5741 5738 5735 5731 5728 5725 5722 5718 5715 5709 5705 5701 5696 5692 5687 5681 5676 5671 5666 5662 5657 5653 5649 5645 5641 5638 5634 5631 5628 5626 5624 5622 5621 5620 5619 5619
5748 5747 5745 5744 5741 5738 5735 5732 5728 5725 5721 5717 5714 5711 5707 5705 5703 5700 5692 5685 5679 5674 5668 5662 5655 5649 5644 5639 5635 5630 5626 5622 5617 5613 5609 5606 5603 5600 5597 5595 5594 5593 5593
5740 5739 5738 5735 5732 5729 5726 5722 5718 5714 5710 5706 5702 5698 5693 5689 5686 5686 5684 5676 5669 5663 5656 5649 5641 5634 5627 5621 5616 5611 5606 5600 5595 5590 5585 5581 5576 5572 5569 5566 5564 5563 5562
5732 5731 5729 5726 5723 5719 5715 5711 5707 5703 5698 5694 5690 5685 5680 5675 5668 5665 5665 5661 5655 5647 5639 5632 5625 5617 5609 5602 5596 5590 5583 5577 5571 5565 5559 5553 5547 5542 5537 5533 5530 5528 5526
5724 5722 5720 5717 5713 5709 5705 5700 5695 5691 5686 5682 5677 5671 5666 5661 5654 5648 5644 5641 5637 5632 5623 5615 5607 5598 5589 5582 5574 5566 5558 5550 5543 5536 5529 5522 5514 5508 5502 5497 5493 5490 5487
5715 5713 5710 5707 5703 5699 5694 5689 5684 5679 5674 5669 5663 5657 5650 5643 5637 5629 5624 5619 5616 5611 5604 5596 5586 5576 5566 5557 5548 5538 5529 5519 5509 5501 5492 5483 5474 5466 5460 5455 5450 5446 5443
5706 5704 5701 5697 5692 5688 5683 5678 5673 5668 5662 5656 5650 5643 5635 5627 5619 5611 5603 5596 5593 5591 5584 5576 5565 5552 5539 5527 5515 5504 5493 5481 5470 5460 5449 5438 5428 5420 5413 5407 5402 5398 5396
5697 5694 5690 5686 5682 5677 5672 5667 5662 5656 5650 5643 5636 5628 5620 5611 5602 5592 5583 5573 5565 5561 5560 5554 5541 5528 5511 5495 5479 5464 5450 5437 5425 5413 5401 5391 5382 5374 5368 5362 5359 5356 5354
5688 5684 5680 5676 5672 5667 5661 5656 5650 5644 5637 5629 5621 5612 5603 5594 5584 5574 5564 5554 5542 5533 5529 5527 5515 5501 5482 5462 5442 5422 5404 5389 5375 5364 5353 5345 5338 5333 5328 5325 5323 5322 5322
5678 5675 5671 5666 5661 5656 5650 5644 5637 5630 5623 5614 5605 5596 5586 5577 5567 5557 5546 5535 5523 5508 5498 5495 5483 5467 5448 5427 5406 5385 5366 5350 5338 5328 5318 5309 5303 5299 5295 5294 5293 5293 5294
5669 5665 5661 5656 5650 5644 5638 5631 5624 5616 5608 5599 5590 5580 5570 5560 5550 5539 5527 5515 5500 5483 5465 5455 5448 5431 5412 5389 5370 5355 5340 5326 5313 5303 5293 5285 5279 5274 5271 5270 5269 5269 5269
5659 5655 5650 5645 5638 5632 5625 5618 5610 5602 5593 5583 5574 5564 5554 5544 5532 5520 5507 5492 5475 5457 5436 5417 5405 5391 5376 5359 5344 5332 5320 5309 5297 5286 5277 5270 5264 5259 5255 5253 5252 5251 5251
5650 5645 5639 5633 5626 5619 5612 5604 5596 5587 5577 5567 5558 5548 5537 5525 5512 5499 5484 5467 5448 5429 5409 5389 5373 5361 5349 5337 5325 5316 5307 5297 5286 5275 5267 5261 5254 5249 5244 5241 5239 5238 5236
5639 5633 5627 5621 5614 5607 5598 5590 5582 5572 5562 5553 5542 5531 5519 5505 5491 5474 5457 5439 5418 5398 5380 5366 5353 5341 5331 5321 5313 5304 5296 5288 5278 5267 5261 5254 5246 5240 5235 5230 5226 5224 5222
5628 5622 5616 5609 5602 5593 5585 5575 5566 5558 5548 5537 5526 5514 5500 5485 5469 5452 5433 5412 5390 5371 5357 5347 5338 5328 5319 5311 5303 5295 5286 5279 5272 5263 5255 5249 5239 5233 5226 5221 5216 5212 5210
5617 5611 5604 5597 5589 5580 5571 5562 5552 5543 5532 5521 5508 5495 5481 5464 5446 5429 5411 5393 5374 5356 5343 5334 5326 5318 5311 5303 5296 5289 5281 5272 5263 5255 5249 5243 5233 5225 5217 5211 5205 5202 5199
5606 5599 5592 5584 5576 5567 5558 5549 5539 5528 5516 5503 5489 5474 5458 5442 5423 5405 5391 5376 5361 5347 5336 5327 5318 5310 5303 5295 5288 5282 5276 5269 5260 5249 5241 5235 5227 5219 5210 5202 5197 5194 5192
5595 5587 5580 5572 5563 5554 5545 5535 5524 5513 5500 5486 5469 5452 5435 5419 5402 5384 5371 5360 5349 5338 5328 5320 5311 5304 5296 5289 5282 5276 5271 5265 5258 5247 5236 5228 5220 5212 5204 5197 5192 5188 5186
5583 5576 5568 5559 5550 5541 5531 5521 5509 5497 5485 5470 5452 5432 5413 5395 5378 5365 5355 5347 5339 5331 5323 5315 5307 5299 5292 5285 5278 5270 5264 5258 5251 5244 5234 5225 5215 5207 5201 5193 5189 5185 5182